Time,TemperatureF,DewpointF,PressureIn,WindDirection,WindDirectionDegrees,WindSpeedMPH,WindSpeedGustMPH,Humidity,HourlyPrecipIn,Conditions,Clouds,dailyrainin,SoftwareType,DateUTC
2013-02-06 00:02:00,31.6,29.0,30.05,ESE,122,3.0,7.0,91,0.00,,,0.00,weatherlink.com 1.10,2013-02-06 05:02:00,
2013-02-06 00:17:00,31.4,29.0,30.06,ESE,115,3.0,8.0,90,0.00,,,0.00,weatherlink.com 1.10,2013-02-06 05:17:00,
2013-02-06 00:32:00,30.9,28.0,30.07,SSE,153,5.0,10.0,90,0.00,,,0.00,weatherlink.com 1.10,2013-02-06 05:32:00,
2013-02-06 00:47:00,30.5,28.0,30.07,ESE,118,9.0,10.0,91,0.00,,,0.00,weatherlink.com 1.10,2013-02-06 05:47:00,
2013-02-06 01:02:00,30.2,28.0,30.08,SE,145,6.0,11.0,90,0.00,,,0.00,weatherlink.com 1.10,2013-02-06 06:02:00,
2013-02-06 01:17:00,30.0,27.0,30.09,SE,133,3.0,9.0,89,0.00,,,0.00,weatherlink.com 1.10,2013-02-06 06:17:00,
2013-02-06 01:32:00,29.8,27.0,30.10,ESE,120,2.0,8.0,89,0.00,,,0.00,weatherlink.com 1.10,2013-02-06 06:32:00,
2013-02-06 01:47:00,29.6,27.0,30.11,ESE,117,4.0,7.0,88,0.00,,,0.00,weatherlink.com 1.10,2013-02-06 06:47:00,
2013-02-06 02:02:00,29.4,26.0,30.11,ENE,76,0.0,6.0,88,0.00,,,0.00,weatherlink.com 1.10,2013-02-06 07:02:00,
2013-02-06 02:17:00,29.5,27.0,30.11,East,101,2.0,6.0,89,0.00,,,0.00,weatherlink.com 1.10,2013-02-06 07:17:00,
2013-02-06 02:32:00,29.5,27.0,30.11,East,99,1.0,10.0,89,0.00,,,0.00,weatherlink.com 1.10,2013-02-06 07:32:00,
2013-02-06 02:47:00,29.6,27.0,30.12,ESE,108,2.0,5.0,88,0.00,,,0.00,weatherlink.com 1.10,2013-02-06 07:47:00,
2013-02-06 03:02:00,29.7,27.0,30.13,ESE,103,2.0,5.0,89,0.00,,,0.00,weatherlink.com 1.10,2013-02-06 08:02:00,
2013-02-06 03:17:00,29.7,27.0,30.14,ESE,109,2.0,4.0,89,0.00,,,0.00,weatherlink.com 1.10,2013-02-06 08:17:00,
2013-02-06 03:32:00,29.6,27.0,30.14,East,101,1.0,5.0,88,0.00,,,0.00,weatherlink.com 1.10,2013-02-06 08:32:00,
2013-02-06 03:48:00,29.4,26.0,30.14,ESE,105,1.0,7.0,87,0.00,,,0.00,weatherlink.com 1.10,2013-02-06 08:48:00,
2013-02-06 04:17:00,29.1,25.0,30.14,East,99,0.0,4.0,85,0.00,,,0.00,weatherlink.com 1.10,2013-02-06 09:17:00,
2013-02-06 04:33:00,28.9,25.0,30.15,East,101,0.0,3.0,85,0.00,,,0.00,weatherlink.com 1.10,2013-02-06 09:33:00,
2013-02-06 04:47:00,28.8,24.0,30.16,East,94,0.0,4.0,83,0.00,,,0.00,weatherlink.com 1.10,2013-02-06 09:47:00,
2013-02-06 05:02:00,28.7,24.0,30.17,East,96,0.0,2.0,83,0.00,,,0.00,weatherlink.com 1.10,2013-02-06 10:02:00,
2013-02-06 05:18:00,28.6,24.0,30.17,ESE,103,0.0,2.0,83,0.00,,,0.00,weatherlink.com 1.10,2013-02-06 10:18:00,
2013-02-06 05:32:00,28.6,24.0,30.18,East,101,0.0,1.0,83,0.00,,,0.00,weatherlink.com 1.10,2013-02-06 10:32:00,
2013-02-06 05:47:00,28.7,24.0,30.19,East,101,1.0,2.0,83,0.00,,,0.00,weatherlink.com 1.10,2013-02-06 10:47:00,
2013-02-06 06:02:00,28.7,25.0,30.20,East,100,0.0,2.0,84,0.00,,,0.00,weatherlink.com 1.10,2013-02-06 11:02:00,
2013-02-06 06:18:00,28.7,25.0,30.20,East,101,0.0,2.0,84,0.00,,,0.00,weatherlink.com 1.10,2013-02-06 11:18:00,
2013-02-06 06:33:00,28.7,25.0,30.20,East,101,0.0,2.0,84,0.00,,,0.00,weatherlink.com 1.10,2013-02-06 11:33:00,
2013-02-06 06:48:00,28.6,24.0,30.21,East,97,0.0,2.0,84,0.00,,,0.00,weatherlink.com 1.10,2013-02-06 11:48:00,
2013-02-06 07:03:00,28.6,24.0,30.21,East,96,1.0,2.0,84,0.00,,,0.00,weatherlink.com 1.10,2013-02-06 12:03:00,
2013-02-06 07:18:00,28.5,24.0,30.21,East,95,0.0,1.0,84,0.00,,,0.00,weatherlink.com 1.10,2013-02-06 12:18:00,
2013-02-06 07:33:00,28.4,24.0,30.22,ESE,103,0.0,2.0,83,0.00,,,0.00,weatherlink.com 1.10,2013-02-06 12:33:00,
2013-02-06 07:48:00,28.4,23.0,30.22,East,96,0.0,1.0,81,0.00,,,0.00,weatherlink.com 1.10,2013-02-06 12:48:00,
2013-02-06 08:03:00,28.4,23.0,30.23,East,101,0.0,3.0,81,0.00,,,0.00,weatherlink.com 1.10,2013-02-06 13:03:00,
2013-02-06 08:18:00,28.4,23.0,30.23,East,101,0.0,1.0,80,0.00,,,0.00,weatherlink.com 1.10,2013-02-06 13:18:00,
2013-02-06 08:33:00,28.6,23.0,30.25,East,96,0.0,1.0,80,0.00,,,0.00,weatherlink.com 1.10,2013-02-06 13:33:00,
2013-02-06 08:48:00,28.7,23.0,30.25,ENE,64,0.0,1.0,79,0.00,,,0.00,weatherlink.com 1.10,2013-02-06 13:48:00,
2013-02-06 09:04:00,29.0,24.0,30.25,ENE,72,0.0,1.0,80,0.00,,,0.00,weatherlink.com 1.10,2013-02-06 14:04:00,
2013-02-06 09:18:00,29.1,23.0,30.24,ESE,110,1.0,2.0,78,0.00,,,0.00,weatherlink.com 1.10,2013-02-06 14:18:00,
2013-02-06 09:33:00,29.4,23.0,30.24,West,278,2.0,5.0,76,0.00,,,0.00,weatherlink.com 1.10,2013-02-06 14:33:00,
2013-02-06 09:48:00,29.8,23.0,30.24,NE,56,1.0,4.0,75,0.00,,,0.00,weatherlink.com 1.10,2013-02-06 14:48:00,
2013-02-06 10:03:00,29.7,22.0,30.24,ESE,105,1.0,3.0,74,0.00,,,0.00,weatherlink.com 1.10,2013-02-06 15:03:00,
2013-02-06 10:18:00,30.2,23.0,30.24,East,90,0.0,4.0,74,0.00,,,0.00,weatherlink.com 1.10,2013-02-06 15:18:00,
2013-02-06 10:33:00,30.0,23.0,30.25,East,101,0.0,3.0,74,0.00,,,0.00,weatherlink.com 1.10,2013-02-06 15:33:00,
2013-02-06 10:48:00,31.4,23.0,30.25,West,267,3.0,3.0,72,0.00,,,0.00,weatherlink.com 1.10,2013-02-06 15:48:00,
2013-02-06 11:03:00,32.7,24.0,30.26,ENE,60,2.0,4.0,70,0.00,,,0.00,weatherlink.com 1.10,2013-02-06 16:03:00,
2013-02-06 11:18:00,32.7,24.0,30.27,ENE,58,0.0,3.0,69,0.00,,,0.00,weatherlink.com 1.10,2013-02-06 16:18:00,
2013-02-06 11:34:00,33.3,24.0,30.26,ENE,61,0.0,4.0,68,0.00,,,0.00,weatherlink.com 1.10,2013-02-06 16:34:00,
2013-02-06 11:49:00,33.8,24.0,30.27,North,360,2.0,4.0,68,0.00,,,0.00,weatherlink.com 1.10,2013-02-06 16:49:00,
2013-02-06 12:03:00,34.2,24.0,30.27,NE,54,4.0,5.0,66,0.00,,,0.00,weatherlink.com 1.10,2013-02-06 17:03:00,
2013-02-06 12:18:00,35.1,25.0,30.26,NE,44,2.0,5.0,66,0.00,,,0.00,weatherlink.com 1.10,2013-02-06 17:18:00,
2013-02-06 12:33:00,34.4,25.0,30.25,NNE,31,3.0,4.0,68,0.00,,,0.00,weatherlink.com 1.10,2013-02-06 17:33:00,
2013-02-06 12:48:00,35.6,25.0,30.25,ENE,63,1.0,4.0,66,0.00,,,0.00,weatherlink.com 1.10,2013-02-06 17:48:00,
2013-02-06 13:03:00,35.8,25.0,30.25,East,93,0.0,5.0,65,0.00,,,0.00,weatherlink.com 1.10,2013-02-06 18:03:00,
2013-02-06 13:19:00,36.8,25.0,30.25,NE,54,1.0,6.0,63,0.00,,,0.00,weatherlink.com 1.10,2013-02-06 18:19:00,
2013-02-06 13:34:00,37.2,25.0,30.24,NE,47,2.0,5.0,62,0.00,,,0.00,weatherlink.com 1.10,2013-02-06 18:34:00,
2013-02-06 13:49:00,37.7,26.0,30.23,NNE,33,2.0,5.0,64,0.00,,,0.00,weatherlink.com 1.10,2013-02-06 18:49:00,
2013-02-06 14:04:00,37.7,25.0,30.23,ENE,63,2.0,6.0,61,0.00,,,0.00,weatherlink.com 1.10,2013-02-06 19:04:00,
2013-02-06 14:20:00,37.9,25.0,30.23,ENE,67,2.0,6.0,61,0.00,,,0.00,weatherlink.com 1.10,2013-02-06 19:20:00,
2013-02-06 14:34:00,38.5,26.0,30.22,NNE,26,3.0,5.0,62,0.00,,,0.00,weatherlink.com 1.10,2013-02-06 19:34:00,
2013-02-06 14:49:00,38.2,26.0,30.21,ENE,63,0.0,5.0,62,0.00,,,0.00,weatherlink.com 1.10,2013-02-06 19:49:00,
2013-02-06 15:04:00,38.6,26.0,30.21,NE,49,2.0,6.0,60,0.00,,,0.00,weatherlink.com 1.10,2013-02-06 20:04:00,
2013-02-06 15:19:00,39.1,27.0,30.22,ENE,65,1.0,5.0,61,0.00,,,0.00,weatherlink.com 1.10,2013-02-06 20:19:00,
2013-02-06 15:34:00,39.3,27.0,30.23,ENE,60,2.0,6.0,62,0.00,,,0.00,weatherlink.com 1.10,2013-02-06 20:34:00,
2013-02-06 15:49:00,39.2,27.0,30.23,NE,50,2.0,4.0,62,0.00,,,0.00,weatherlink.com 1.10,2013-02-06 20:49:00,
2013-02-06 16:04:00,38.7,27.0,30.23,ENE,65,3.0,4.0,62,0.00,,,0.00,weatherlink.com 1.10,2013-02-06 21:04:00,
2013-02-06 16:19:00,38.3,26.0,30.24,ENE,61,1.0,3.0,62,0.00,,,0.00,weatherlink.com 1.10,2013-02-06 21:19:00,
2013-02-06 16:34:00,37.9,27.0,30.23,ENE,62,1.0,3.0,64,0.00,,,0.00,weatherlink.com 1.10,2013-02-06 21:34:00,
2013-02-06 16:49:00,36.9,26.0,30.23,NE,47,1.0,3.0,65,0.00,,,0.00,weatherlink.com 1.10,2013-02-06 21:49:00,
2013-02-06 17:04:00,35.8,26.0,30.22,ENE,60,1.0,3.0,67,0.00,,,0.00,weatherlink.com 1.10,2013-02-06 22:04:00,
2013-02-06 17:19:00,34.8,26.0,30.23,ENE,58,0.0,3.0,71,0.00,,,0.00,weatherlink.com 1.10,2013-02-06 22:19:00,
2013-02-06 17:34:00,34.0,26.0,30.23,NE,47,1.0,5.0,72,0.00,,,0.00,weatherlink.com 1.10,2013-02-06 22:34:00,
2013-02-06 17:49:00,33.1,26.0,30.23,ENE,58,1.0,3.0,75,0.00,,,0.00,weatherlink.com 1.10,2013-02-06 22:49:00,
2013-02-06 18:04:00,32.5,26.0,30.23,ENE,60,0.0,5.0,76,0.00,,,0.00,weatherlink.com 1.10,2013-02-06 23:04:00,
2013-02-06 18:19:00,31.6,25.0,30.23,ENE,61,0.0,2.0,78,0.00,,,0.00,weatherlink.com 1.10,2013-02-06 23:19:00,
2013-02-06 18:34:00,30.8,25.0,30.23,ENE,63,0.0,3.0,80,0.00,,,0.00,weatherlink.com 1.10,2013-02-06 23:34:00,
2013-02-06 18:49:00,30.6,25.0,30.22,ENE,77,0.0,2.0,81,0.00,,,0.00,weatherlink.com 1.10,2013-02-06 23:49:00,
2013-02-06 19:04:00,30.0,25.0,30.23,ENE,65,0.0,2.0,82,0.00,,,0.00,weatherlink.com 1.10,2013-02-07 00:04:00,
2013-02-06 19:19:00,29.7,25.0,30.22,NNE,13,2.0,2.0,84,0.00,,,0.00,weatherlink.com 1.10,2013-02-07 00:19:00,
2013-02-06 19:34:00,29.8,26.0,30.23,ENE,65,0.0,3.0,85,0.00,,,0.00,weatherlink.com 1.10,2013-02-07 00:34:00,
2013-02-06 19:49:00,29.9,26.0,30.21,NE,44,1.0,3.0,85,0.00,,,0.00,weatherlink.com 1.10,2013-02-07 00:49:00,
2013-02-06 20:04:00,29.9,26.0,30.21,ENE,74,2.0,5.0,85,0.00,,,0.00,weatherlink.com 1.10,2013-02-07 01:04:00,
2013-02-06 20:19:00,29.9,26.0,30.22,NNE,22,3.0,6.0,85,0.00,,,0.00,weatherlink.com 1.10,2013-02-07 01:19:00,
2013-02-06 20:34:00,29.9,26.0,30.22,ENE,59,1.0,4.0,86,0.00,,,0.00,weatherlink.com 1.10,2013-02-07 01:34:00,
2013-02-06 20:49:00,29.8,26.0,30.21,NE,41,2.0,4.0,86,0.00,,,0.00,weatherlink.com 1.10,2013-02-07 01:49:00,
2013-02-06 21:04:00,29.6,26.0,30.20,ENE,58,1.0,3.0,87,0.00,,,0.00,weatherlink.com 1.10,2013-02-07 02:04:00,
2013-02-06 21:19:00,29.6,26.0,30.21,ENE,61,0.0,2.0,87,0.00,,,0.00,weatherlink.com 1.10,2013-02-07 02:19:00,
2013-02-06 21:34:00,29.5,26.0,30.21,ENE,68,0.0,1.0,87,0.00,,,0.00,weatherlink.com 1.10,2013-02-07 02:34:00,
2013-02-06 21:49:00,29.4,26.0,30.21,ENE,63,0.0,1.0,88,0.00,,,0.00,weatherlink.com 1.10,2013-02-07 02:49:00,
2013-02-06 22:04:00,29.2,26.0,30.22,ENE,64,0.0,1.0,88,0.00,,,0.00,weatherlink.com 1.10,2013-02-07 03:04:00,
2013-02-06 22:20:00,29.2,26.0,30.21,NE,53,1.0,1.0,89,0.00,,,0.00,weatherlink.com 1.10,2013-02-07 03:20:00,
2013-02-06 22:34:00,29.4,26.0,30.20,ENE,72,1.0,2.0,88,0.00,,,0.00,weatherlink.com 1.10,2013-02-07 03:34:00,
2013-02-06 22:49:00,29.6,27.0,30.20,NE,56,0.0,2.0,88,0.00,,,0.00,weatherlink.com 1.10,2013-02-07 03:49:00,
2013-02-06 23:04:00,29.7,27.0,30.20,NE,37,2.0,3.0,88,0.00,,,0.00,weatherlink.com 1.10,2013-02-07 04:04:00,
2013-02-06 23:20:00,29.8,27.0,30.20,NE,53,1.0,4.0,88,0.00,,,0.00,weatherlink.com 1.10,2013-02-07 04:20:00,
2013-02-06 23:34:00,29.8,27.0,30.19,ENE,58,1.0,5.0,88,0.00,,,0.00,weatherlink.com 1.10,2013-02-07 04:34:00,
2013-02-06 23:49:00,30.0,27.0,30.20,ENE,71,0.0,5.0,88,0.00,,,0.00,weatherlink.com 1.10,2013-02-07 04:49:00,